Time,TemperatureF,DewpointF,PressureIn,WindDirection,WindDirectionDegrees,WindSpeedMPH,WindSpeedGustMPH,Humidity,HourlyPrecipIn,Conditions,Clouds,dailyrainin,SoftwareType,DateUTC
2013-05-30 00:01:00,41.6,27.1,29.80,WSW,255,6.0,17.0,56,0.00,,---,0.00,VWS V14.01,2013-05-30 06:01:00,
2013-05-30 00:06:00,41.6,27.5,29.81,SW,235,6.0,11.0,57,0.00,,---,0.00,VWS V14.01,2013-05-30 06:06:00,
2013-05-30 00:11:00,41.6,27.1,29.81,SW,233,6.0,14.0,56,0.00,,---,0.00,VWS V14.01,2013-05-30 06:11:00,
2013-05-30 00:16:00,41.5,27.0,29.80,SSW,210,8.0,14.0,56,0.00,,---,0.00,VWS V14.01,2013-05-30 06:16:00,
2013-05-30 00:21:00,41.6,27.1,29.81,South,172,5.0,14.0,56,0.00,,---,0.00,VWS V14.01,2013-05-30 06:21:00,
2013-05-30 00:26:00,41.5,27.0,29.81,ENE,61,11.0,14.0,56,0.00,,---,0.00,VWS V14.01,2013-05-30 06:26:00,
2013-05-30 00:31:00,41.5,27.0,29.81,WNW,298,1.0,14.0,56,0.00,,---,0.00,VWS V14.01,2013-05-30 06:31:00,
2013-05-30 00:36:00,41.4,26.9,29.81,NW,326,12.0,12.0,56,0.00,,---,0.00,VWS V14.01,2013-05-30 06:36:00,
2013-05-30 00:41:00,41.3,26.8,29.81,SSW,210,7.0,16.0,56,0.00,,---,0.00,VWS V14.01,2013-05-30 06:41:00,
2013-05-30 00:46:00,41.2,27.1,29.81,North,10,6.0,16.0,57,0.00,,---,0.00,VWS V14.01,2013-05-30 06:46:00,
2013-05-30 00:51:00,41.0,27.4,29.81,WSW,238,5.0,16.0,58,0.00,,---,0.00,VWS V14.01,2013-05-30 06:51:00,
2013-05-30 00:56:00,40.8,27.6,29.81,WSW,240,6.0,16.0,59,0.00,,---,0.00,VWS V14.01,2013-05-30 06:56:00,
2013-05-30 01:01:00,40.7,27.5,29.80,WNW,283,5.0,16.0,59,0.00,,---,0.00,VWS V14.01,2013-05-30 07:01:00,
2013-05-30 01:06:00,40.7,27.5,29.80,NW,323,7.0,13.0,59,0.00,,---,0.00,VWS V14.01,2013-05-30 07:06:00,
2013-05-30 01:11:00,40.8,26.8,29.80,South,180,3.0,13.0,57,0.00,,---,0.00,VWS V14.01,2013-05-30 07:11:00,
2013-05-30 01:16:00,40.8,26.8,29.80,WSW,249,1.0,13.0,57,0.00,,---,0.00,VWS V14.01,2013-05-30 07:16:00,
2013-05-30 01:21:00,40.8,27.2,29.80,SW,217,3.0,13.0,58,0.00,,---,0.00,VWS V14.01,2013-05-30 07:21:00,
2013-05-30 01:26:00,40.9,26.9,29.80,WSW,256,7.0,15.0,57,0.00,,---,0.00,VWS V14.01,2013-05-30 07:26:00,
2013-05-30 01:31:00,40.9,26.9,29.79,SW,232,1.0,15.0,57,0.00,,---,0.00,VWS V14.01,2013-05-30 07:31:00,
2013-05-30 01:36:00,40.8,26.8,29.80,SW,221,9.0,11.0,57,0.00,,---,0.00,VWS V14.01,2013-05-30 07:36:00,
2013-05-30 01:41:00,40.7,26.7,29.79,WSW,248,9.0,12.0,57,0.00,,---,0.00,VWS V14.01,2013-05-30 07:41:00,
2013-05-30 01:46:00,40.6,27.0,29.79,West,281,10.0,12.0,58,0.00,,---,0.00,VWS V14.01,2013-05-30 07:46:00,
2013-05-30 01:51:00,40.5,26.9,29.79,SSW,203,4.0,14.0,58,0.00,,---,0.00,VWS V14.01,2013-05-30 07:51:00,
2013-05-30 01:56:00,40.4,27.2,29.80,North,349,3.0,14.0,59,0.00,,---,0.00,VWS V14.01,2013-05-30 07:56:00,
2013-05-30 02:01:00,40.2,27.4,29.79,WSW,245,4.0,14.0,60,0.00,,---,0.00,VWS V14.01,2013-05-30 08:01:00,
2013-05-30 02:06:00,40.2,27.0,29.80,West,281,10.0,11.0,59,0.00,,---,0.00,VWS V14.01,2013-05-30 08:06:00,
2013-05-30 02:11:00,40.1,26.9,29.79,West,262,4.0,11.0,59,0.00,,---,0.00,VWS V14.01,2013-05-30 08:11:00,
2013-05-30 02:16:00,40.0,26.8,29.79,WSW,239,6.0,15.0,59,0.00,,---,0.00,VWS V14.01,2013-05-30 08:16:00,
2013-05-30 02:21:00,40.1,26.9,29.80,SW,233,6.0,15.0,59,0.00,,---,0.00,VWS V14.01,2013-05-30 08:21:00,
2013-05-30 02:26:00,40.0,26.8,29.80,West,271,4.0,15.0,59,0.00,,---,0.00,VWS V14.01,2013-05-30 08:26:00,
2013-05-30 02:31:00,40.0,26.4,29.80,NW,307,4.0,15.0,58,0.00,,---,0.00,VWS V14.01,2013-05-30 08:31:00,
2013-05-30 02:36:00,39.9,26.3,29.79,SE,145,2.0,5.0,58,0.00,,---,0.00,VWS V14.01,2013-05-30 08:36:00,
2013-05-30 02:41:00,40.0,26.4,29.80,WNW,296,6.0,11.0,58,0.00,,---,0.00,VWS V14.01,2013-05-30 08:41:00,
2013-05-30 02:46:00,39.9,26.3,29.81,NE,44,7.0,13.0,58,0.00,,---,0.00,VWS V14.01,2013-05-30 08:46:00,
2013-05-30 02:51:00,39.9,26.3,29.80,West,279,2.0,13.0,58,0.00,,---,0.00,VWS V14.01,2013-05-30 08:51:00,
2013-05-30 02:56:00,39.7,26.6,29.79,WSW,252,8.0,13.0,59,0.00,,---,0.00,VWS V14.01,2013-05-30 08:56:00,
2013-05-30 03:01:00,39.6,26.5,29.79,WSW,248,4.0,13.0,59,0.00,,---,0.00,VWS V14.01,2013-05-30 09:01:00,
2013-05-30 03:06:00,39.5,26.0,29.79,South,170,2.0,7.0,58,0.00,,---,0.00,VWS V14.01,2013-05-30 09:06:00,
2013-05-30 03:11:00,39.7,25.7,29.79,ESE,113,4.0,12.0,57,0.00,,---,0.00,VWS V14.01,2013-05-30 09:11:00,
2013-05-30 03:16:00,39.7,25.3,29.79,WSW,250,3.0,14.0,56,0.00,,---,0.00,VWS V14.01,2013-05-30 09:16:00,
2013-05-30 03:21:00,39.9,25.1,29.79,South,169,5.0,17.0,55,0.00,,---,0.00,VWS V14.01,2013-05-30 09:21:00,
2013-05-30 03:26:00,39.9,25.5,29.79,West,273,2.0,17.0,56,0.00,,---,0.00,VWS V14.01,2013-05-30 09:26:00,
2013-05-30 03:31:00,39.9,25.5,29.79,WSW,257,7.0,17.0,56,0.00,,---,0.00,VWS V14.01,2013-05-30 09:31:00,
2013-05-30 03:36:00,39.9,25.5,29.78,SSE,157,6.0,10.0,56,0.00,,---,0.00,VWS V14.01,2013-05-30 09:36:00,
2013-05-30 03:41:00,39.9,25.1,29.78,WNW,283,4.0,14.0,55,0.00,,---,0.00,VWS V14.01,2013-05-30 09:41:00,
2013-05-30 03:46:00,39.9,25.5,29.78,WSW,257,9.0,14.0,56,0.00,,---,0.00,VWS V14.01,2013-05-30 09:46:00,
2013-05-30 03:51:00,39.7,26.1,29.79,WNW,302,4.0,14.0,58,0.00,,---,0.00,VWS V14.01,2013-05-30 09:51:00,
2013-05-30 03:55:00,39.7,25.7,29.78,WSW,238,12.0,14.0,57,0.00,,---,0.00,VWS V14.01,2013-05-30 09:55:00,
2013-05-30 04:00:00,39.9,25.1,29.78,WNW,292,3.0,15.0,55,0.00,,---,0.00,VWS V14.01,2013-05-30 10:00:00,
2013-05-30 04:05:00,39.9,24.6,29.78,West,265,4.0,5.0,54,0.00,,---,0.00,VWS V14.01,2013-05-30 10:05:00,
2013-05-30 04:10:00,39.9,24.6,29.78,WSW,242,6.0,11.0,54,0.00,,---,0.00,VWS V14.01,2013-05-30 10:10:00,
2013-05-30 04:15:00,39.9,25.1,29.79,SSW,204,5.0,13.0,55,0.00,,---,0.00,VWS V14.01,2013-05-30 10:15:00,
2013-05-30 04:21:00,39.9,25.5,29.79,East,98,4.0,13.0,56,0.00,,---,0.00,VWS V14.01,2013-05-30 10:21:00,
2013-05-30 04:26:00,39.7,25.3,29.78,NW,322,3.0,13.0,56,0.00,,---,0.00,VWS V14.01,2013-05-30 10:26:00,
2013-05-30 04:31:00,39.7,25.3,29.79,WSW,240,5.0,15.0,56,0.00,,---,0.00,VWS V14.01,2013-05-30 10:31:00,
2013-05-30 04:36:00,39.7,25.3,29.79,NE,47,1.0,11.0,56,0.00,,---,0.00,VWS V14.01,2013-05-30 10:36:00,
2013-05-30 04:41:00,39.8,25.4,29.79,NNE,14,5.0,11.0,56,0.00,,---,0.00,VWS V14.01,2013-05-30 10:41:00,
2013-05-30 04:46:00,39.7,25.3,29.79,SW,229,2.0,13.0,56,0.00,,---,0.00,VWS V14.01,2013-05-30 10:46:00,
2013-05-30 04:50:00,39.7,25.7,29.80,NNE,33,7.0,13.0,57,0.00,,---,0.00,VWS V14.01,2013-05-30 10:50:00,
2013-05-30 04:55:00,39.6,25.6,29.80,West,269,2.0,13.0,57,0.00,,---,0.00,VWS V14.01,2013-05-30 10:55:00,
2013-05-30 05:00:00,39.5,26.0,29.80,WNW,283,6.0,13.0,58,0.00,,---,0.00,VWS V14.01,2013-05-30 11:00:00,
2013-05-30 05:05:00,39.4,26.3,29.80,NE,49,4.0,4.0,59,0.00,,---,0.00,VWS V14.01,2013-05-30 11:05:00,
2013-05-30 05:10:00,39.2,26.1,29.80,NNW,327,1.0,8.0,59,0.00,,---,0.00,VWS V14.01,2013-05-30 11:10:00,
2013-05-30 05:15:00,39.2,26.1,29.81,WSW,252,1.0,11.0,59,0.00,,---,0.00,VWS V14.01,2013-05-30 11:15:00,
2013-05-30 05:20:00,39.1,26.0,29.80,NE,53,2.0,11.0,59,0.00,,---,0.00,VWS V14.01,2013-05-30 11:20:00,
2013-05-30 05:25:00,39.3,25.8,29.80,WNW,291,0.0,11.0,58,0.00,,---,0.00,VWS V14.01,2013-05-30 11:25:00,
2013-05-30 05:30:00,39.3,25.8,29.81,SW,229,2.0,11.0,58,0.00,,---,0.00,VWS V14.01,2013-05-30 11:30:00,
2013-05-30 05:35:00,39.6,25.6,29.81,West,273,1.0,4.0,57,0.00,,---,0.00,VWS V14.01,2013-05-30 11:35:00,
2013-05-30 05:40:00,39.7,25.7,29.81,WSW,250,5.0,13.0,57,0.00,,---,0.00,VWS V14.01,2013-05-30 11:40:00,
2013-05-30 05:45:00,39.7,25.7,29.80,SW,228,4.0,13.0,57,0.00,,---,0.00,VWS V14.01,2013-05-30 11:45:00,
2013-05-30 05:50:00,39.7,25.7,29.80,SW,228,4.0,13.0,57,0.00,,---,0.00,VWS V14.01,2013-05-30 11:50:00,
2013-05-30 05:55:00,39.7,25.7,29.80,SW,228,4.0,13.0,57,0.00,,---,0.00,VWS V14.01,2013-05-30 11:55:00,
2013-05-30 06:00:00,39.7,25.7,29.80,SW,228,4.0,13.0,57,0.00,,---,0.00,VWS V14.01,2013-05-30 12:00:00,
2013-05-30 06:05:00,39.7,25.7,29.80,SW,228,4.0,4.0,57,0.00,,---,0.00,VWS V14.01,2013-05-30 12:05:00,
2013-05-30 06:10:00,39.7,25.7,29.80,SW,228,4.0,4.0,57,0.00,,---,0.00,VWS V14.01,2013-05-30 12:10:00,
2013-05-30 06:15:00,39.7,25.7,29.81,SW,228,4.0,4.0,57,0.00,,---,0.00,VWS V14.01,2013-05-30 12:15:00,
2013-05-30 06:20:00,39.7,25.7,29.81,SW,228,4.0,4.0,57,0.00,,---,0.00,VWS V14.01,2013-05-30 12:20:00,
2013-05-30 06:25:00,39.7,25.7,29.81,SW,228,4.0,4.0,57,0.00,,---,0.00,VWS V14.01,2013-05-30 12:25:00,
2013-05-30 06:30:00,39.7,25.7,29.81,SW,228,4.0,4.0,57,0.00,,---,0.00,VWS V14.01,2013-05-30 12:30:00,
2013-05-30 06:35:00,39.7,25.7,29.81,SW,228,4.0,4.0,57,0.00,,---,0.00,VWS V14.01,2013-05-30 12:35:00,
2013-05-30 06:40:00,39.7,25.7,29.82,SW,228,4.0,4.0,57,0.00,,---,0.00,VWS V14.01,2013-05-30 12:40:00,
2013-05-30 06:45:00,39.7,25.7,29.82,SW,228,4.0,4.0,57,0.00,,---,0.00,VWS V14.01,2013-05-30 12:45:00,
2013-05-30 06:50:00,39.7,25.7,29.81,SW,228,4.0,4.0,57,0.00,,---,0.00,VWS V14.01,2013-05-30 12:50:00,
2013-05-30 06:55:00,39.7,25.7,29.82,SW,228,4.0,4.0,57,0.00,,---,0.00,VWS V14.01,2013-05-30 12:55:00,
2013-05-30 07:00:00,39.7,25.7,29.81,SW,228,4.0,4.0,57,0.00,,---,0.00,VWS V14.01,2013-05-30 13:00:00,
2013-05-30 07:05:00,39.7,25.7,29.81,SW,228,4.0,4.0,57,0.00,,---,0.00,VWS V14.01,2013-05-30 13:05:00,
2013-05-30 07:10:00,39.7,25.7,29.81,SW,228,4.0,4.0,57,0.00,,---,0.00,VWS V14.01,2013-05-30 13:10:00,
2013-05-30 07:15:00,39.7,25.7,29.81,SW,228,4.0,4.0,57,0.00,,---,0.00,VWS V14.01,2013-05-30 13:15:00,
2013-05-30 07:20:00,39.7,25.7,29.81,SW,228,4.0,4.0,57,0.00,,---,0.00,VWS V14.01,2013-05-30 13:20:00,
2013-05-30 07:25:00,39.7,25.7,29.80,SW,228,4.0,4.0,57,0.00,,---,0.00,VWS V14.01,2013-05-30 13:25:00,
2013-05-30 07:30:00,39.7,25.7,29.80,SW,228,4.0,4.0,57,0.00,,---,0.00,VWS V14.01,2013-05-30 13:30:00,
2013-05-30 07:35:00,39.7,25.7,29.80,SW,228,4.0,4.0,57,0.00,,---,0.00,VWS V14.01,2013-05-30 13:35:00,
2013-05-30 07:40:00,39.7,25.7,29.79,SW,228,4.0,4.0,57,0.00,,---,0.00,VWS V14.01,2013-05-30 13:40:00,
2013-05-30 07:45:00,39.7,25.7,29.79,SW,228,4.0,4.0,57,0.00,,---,0.00,VWS V14.01,2013-05-30 13:45:00,
2013-05-30 07:50:00,39.7,25.7,29.80,SW,228,4.0,4.0,57,0.00,,---,0.00,VWS V14.01,2013-05-30 13:50:00,
2013-05-30 07:55:00,40.9,26.4,29.80,WSW,257,7.0,13.0,56,0.00,,---,0.00,VWS V14.01,2013-05-30 13:55:00,
2013-05-30 08:00:00,41.4,26.5,29.78,WNW,283,4.0,13.0,55,0.00,,---,0.00,VWS V14.01,2013-05-30 14:00:00,
2013-05-30 08:05:00,41.9,25.1,29.78,SW,221,4.0,10.0,51,0.00,,---,0.00,VWS V14.01,2013-05-30 14:05:00,
2013-05-30 08:10:00,42.4,25.6,29.78,WSW,255,8.0,15.0,51,0.00,,---,0.00,VWS V14.01,2013-05-30 14:10:00,
2013-05-30 08:15:00,42.5,24.7,29.78,SSE,153,4.0,15.0,49,0.00,,---,0.00,VWS V14.01,2013-05-30 14:15:00,
2013-05-30 08:20:00,42.9,25.6,29.79,East,101,1.0,15.0,50,0.00,,---,0.00,VWS V14.01,2013-05-30 14:20:00,
2013-05-30 08:25:00,42.9,25.1,29.78,WSW,255,4.0,15.0,49,0.00,,---,0.00,VWS V14.01,2013-05-30 14:25:00,
2013-05-30 08:30:00,43.4,25.0,29.78,NNW,330,11.0,16.0,48,0.00,,---,0.00,VWS V14.01,2013-05-30 14:30:00,
2013-05-30 08:35:00,43.6,25.7,29.79,WSW,256,6.0,6.0,49,0.00,,---,0.00,VWS V14.01,2013-05-30 14:35:00,
2013-05-30 08:40:00,43.7,24.8,29.79,East,95,4.0,12.0,47,0.00,,---,0.00,VWS V14.01,2013-05-30 14:40:00,
2013-05-30 08:45:00,43.7,23.8,29.77,SSW,193,10.0,15.0,45,0.00,,---,0.00,VWS V14.01,2013-05-30 14:45:00,
2013-05-30 08:50:00,43.7,23.8,29.77,East,80,4.0,16.0,45,0.00,,---,0.00,VWS V14.01,2013-05-30 14:50:00,
2013-05-30 08:55:00,43.8,24.4,29.77,West,266,19.0,19.0,46,0.00,,---,0.00,VWS V14.01,2013-05-30 14:55:00,
2013-05-30 09:00:00,43.7,23.2,29.75,WNW,293,7.0,22.0,44,0.00,,---,0.00,VWS V14.01,2013-05-30 15:00:00,
2013-05-30 09:05:00,43.7,23.8,29.77,SW,218,5.0,15.0,45,0.00,,---,0.00,VWS V14.01,2013-05-30 15:05:00,
2013-05-30 09:10:00,43.6,23.7,29.76,WSW,238,13.0,18.0,45,0.00,,---,0.00,VWS V14.01,2013-05-30 15:10:00,
2013-05-30 09:15:00,43.7,22.7,29.76,ESE,115,21.0,21.0,43,0.00,,---,0.00,VWS V14.01,2013-05-30 15:15:00,
2013-05-30 09:20:00,43.9,22.9,29.74,West,281,6.0,21.0,43,0.00,,---,0.00,VWS V14.01,2013-05-30 15:20:00,
2013-05-30 09:25:00,43.8,22.8,29.74,NW,321,11.0,27.0,43,0.00,,---,0.00,VWS V14.01,2013-05-30 15:25:00,
2013-05-30 09:30:00,44.1,22.5,29.75,WSW,238,7.0,27.0,42,0.00,,---,0.00,VWS V14.01,2013-05-30 15:30:00,
2013-05-30 09:35:00,44.0,21.8,29.74,SSW,207,5.0,12.0,41,0.00,,---,0.00,VWS V14.01,2013-05-30 15:35:00,
2013-05-30 09:40:00,44.3,22.1,29.75,WSW,250,12.0,17.0,41,0.00,,---,0.00,VWS V14.01,2013-05-30 15:40:00,
2013-05-30 09:45:00,44.1,21.9,29.76,NNW,341,6.0,21.0,41,0.00,,---,0.00,VWS V14.01,2013-05-30 15:45:00,
2013-05-30 09:50:00,44.2,21.4,29.76,North,6,7.0,21.0,40,0.00,,---,0.00,VWS V14.01,2013-05-30 15:50:00,
2013-05-30 09:55:00,44.4,22.2,29.75,North,6,3.0,21.0,41,0.00,,---,0.00,VWS V14.01,2013-05-30 15:55:00,
2013-05-30 10:00:00,44.5,21.7,29.76,NNW,339,9.0,21.0,40,0.00,,---,0.00,VWS V14.01,2013-05-30 16:00:00,
2013-05-30 10:05:00,44.6,22.4,29.76,WSW,239,9.0,16.0,41,0.00,,---,0.00,VWS V14.01,2013-05-30 16:05:00,
2013-05-30 10:10:00,44.8,22.5,29.76,West,280,7.0,16.0,41,0.00,,---,0.00,VWS V14.01,2013-05-30 16:10:00,
2013-05-30 10:15:00,44.6,22.4,29.77,NW,304,5.0,21.0,41,0.00,,---,0.00,VWS V14.01,2013-05-30 16:15:00,
2013-05-30 10:20:00,44.6,22.9,29.76,SW,235,9.0,21.0,42,0.00,,---,0.00,VWS V14.01,2013-05-30 16:20:00,
2013-05-30 10:25:00,45.0,22.1,29.75,NNW,329,6.0,23.0,40,0.00,,---,0.00,VWS V14.01,2013-05-30 16:25:00,
2013-05-30 10:30:00,45.3,21.2,29.74,WSW,238,16.0,23.0,38,0.00,,---,0.00,VWS V14.01,2013-05-30 16:30:00,
2013-05-30 10:35:00,45.3,20.6,29.74,WSW,238,7.0,18.0,37,0.00,,---,0.00,VWS V14.01,2013-05-30 16:35:00,
2013-05-30 10:40:00,45.3,20.6,29.75,SW,219,19.0,20.0,37,0.00,,---,0.00,VWS V14.01,2013-05-30 16:40:00,
2013-05-30 10:45:00,45.0,20.9,29.75,NNW,340,8.0,30.0,38,0.00,,---,0.00,VWS V14.01,2013-05-30 16:45:00,
2013-05-30 10:50:00,45.2,21.7,29.75,SW,221,11.0,30.0,39,0.00,,---,0.00,VWS V14.01,2013-05-30 16:50:00,
2013-05-30 10:55:00,45.5,22.0,29.75,NW,314,7.0,30.0,39,0.00,,---,0.00,VWS V14.01,2013-05-30 16:55:00,
2013-05-30 11:00:00,45.9,21.1,29.75,West,270,9.0,30.0,37,0.00,,---,0.00,VWS V14.01,2013-05-30 17:00:00,
2013-05-30 11:05:00,46.0,21.2,29.75,West,280,6.0,16.0,37,0.00,,---,0.00,VWS V14.01,2013-05-30 17:05:00,
2013-05-30 11:10:00,46.1,19.3,29.75,WSW,245,13.0,17.0,34,0.00,,---,0.00,VWS V14.01,2013-05-30 17:10:00,
2013-05-30 11:15:00,46.5,19.0,29.76,WSW,248,10.0,22.0,33,0.00,,---,0.00,VWS V14.01,2013-05-30 17:15:00,
2013-05-30 11:20:00,46.0,19.9,29.75,WSW,240,14.0,22.0,35,0.00,,---,0.00,VWS V14.01,2013-05-30 17:20:00,
2013-05-30 11:25:00,45.9,19.8,29.75,SE,142,8.0,22.0,35,0.00,,---,0.00,VWS V14.01,2013-05-30 17:25:00,
2013-05-30 11:30:00,46.3,17.3,29.74,West,276,10.0,23.0,31,0.00,,---,0.00,VWS V14.01,2013-05-30 17:30:00,
2013-05-30 11:35:00,46.3,18.8,29.74,SW,232,15.0,22.0,33,0.00,,---,0.00,VWS V14.01,2013-05-30 17:35:00,
2013-05-30 11:40:00,46.2,19.4,29.76,WNW,288,4.0,25.0,34,0.00,,---,0.00,VWS V14.01,2013-05-30 17:40:00,
2013-05-30 11:45:00,46.3,18.1,29.76,WSW,243,10.0,25.0,32,0.00,,---,0.00,VWS V14.01,2013-05-30 17:45:00,
2013-05-30 11:50:00,46.9,17.9,29.77,SSW,210,6.0,25.0,31,0.00,,---,0.00,VWS V14.01,2013-05-30 17:50:00,
2013-05-30 11:55:00,46.9,17.1,29.75,WSW,240,4.0,25.0,30,0.00,,---,0.00,VWS V14.01,2013-05-30 17:55:00,
2013-05-30 12:00:00,47.2,18.1,29.76,WNW,290,4.0,25.0,31,0.00,,---,0.00,VWS V14.01,2013-05-30 18:00:00,
2013-05-30 12:05:00,47.4,19.8,29.77,South,184,13.0,17.0,33,0.00,,---,0.00,VWS V14.01,2013-05-30 18:05:00,
2013-05-30 12:13:00,47.7,19.3,29.78,SE,145,6.0,18.0,32,0.00,,---,0.00,VWS V14.01,2013-05-30 18:13:00,
2013-05-30 12:18:00,47.6,19.9,29.77,West,273,6.0,22.0,33,0.00,,---,0.00,VWS V14.01,2013-05-30 18:18:00,
2013-05-30 12:23:00,47.8,20.8,29.77,South,188,5.0,22.0,34,0.00,,---,0.00,VWS V14.01,2013-05-30 18:23:00,
2013-05-30 12:28:00,48.2,21.2,29.76,WSW,240,5.0,22.0,34,0.00,,---,0.00,VWS V14.01,2013-05-30 18:28:00,
2013-05-30 12:33:00,48.4,19.9,29.76,WSW,250,8.0,22.0,32,0.00,,---,0.00,VWS V14.01,2013-05-30 18:33:00,
2013-05-30 12:38:00,48.4,19.9,29.76,East,86,10.0,17.0,32,0.00,,---,0.00,VWS V14.01,2013-05-30 18:38:00,
2013-05-30 12:43:00,48.3,21.2,29.77,South,176,8.0,17.0,34,0.00,,---,0.00,VWS V14.01,2013-05-30 18:43:00,
2013-05-30 12:48:00,48.0,21.7,29.76,WSW,242,8.0,20.0,35,0.00,,---,0.00,VWS V14.01,2013-05-30 18:48:00,
2013-05-30 12:53:00,48.0,22.3,29.77,North,353,5.0,20.0,36,0.00,,---,0.00,VWS V14.01,2013-05-30 18:53:00,
2013-05-30 12:58:00,47.7,23.4,29.78,SW,231,12.0,21.0,38,0.00,,---,0.00,VWS V14.01,2013-05-30 18:58:00,
2013-05-30 13:03:00,47.5,23.8,29.80,WNW,287,5.0,23.0,39,0.00,,---,0.00,VWS V14.01,2013-05-30 19:03:00,
2013-05-30 13:08:00,47.2,23.5,29.81,SW,227,11.0,18.0,39,0.00,,---,0.00,VWS V14.01,2013-05-30 19:08:00,
2013-05-30 13:13:00,46.8,23.2,29.81,SSW,205,5.0,18.0,39,0.00,,---,0.00,VWS V14.01,2013-05-30 19:13:00,
2013-05-30 13:18:00,46.9,22.6,29.82,SW,222,7.0,21.0,38,0.00,,---,0.00,VWS V14.01,2013-05-30 19:18:00,
2013-05-30 13:23:00,47.4,22.5,29.83,WSW,243,7.0,21.0,37,0.00,,---,0.00,VWS V14.01,2013-05-30 19:23:00,
2013-05-30 13:28:00,47.6,22.6,29.83,West,264,4.0,21.0,37,0.00,,---,0.00,VWS V14.01,2013-05-30 19:28:00,
2013-05-30 13:33:00,48.0,22.3,29.83,West,267,7.0,26.0,36,0.00,,---,0.00,VWS V14.01,2013-05-30 19:33:00,
2013-05-30 13:38:00,48.2,22.5,29.83,West,280,9.0,15.0,36,0.00,,---,0.00,VWS V14.01,2013-05-30 19:38:00,
2013-05-30 13:43:00,47.9,22.2,29.84,ESE,107,9.0,21.0,36,0.00,,---,0.00,VWS V14.01,2013-05-30 19:43:00,
2013-05-30 13:48:00,47.9,21.6,29.84,WSW,240,10.0,21.0,35,0.00,,---,0.00,VWS V14.01,2013-05-30 19:48:00,
2013-05-30 13:53:00,48.1,22.4,29.85,East,85,7.0,21.0,36,0.00,,---,0.00,VWS V14.01,2013-05-30 19:53:00,
2013-05-30 13:58:00,48.1,21.8,29.84,WSW,243,10.0,21.0,35,0.00,,---,0.00,VWS V14.01,2013-05-30 19:58:00,
2013-05-30 14:03:00,48.5,21.4,29.83,NW,322,4.0,21.0,34,0.00,,---,0.00,VWS V14.01,2013-05-30 20:03:00,
2013-05-30 14:08:00,49.1,21.3,29.84,West,266,3.0,13.0,33,0.00,,---,0.00,VWS V14.01,2013-05-30 20:08:00,
2013-05-30 14:13:00,49.3,19.2,29.83,NW,311,8.0,15.0,30,0.00,,---,0.00,VWS V14.01,2013-05-30 20:13:00,
2013-05-30 14:18:00,49.0,19.7,29.84,South,188,11.0,15.0,31,0.00,,---,0.00,VWS V14.01,2013-05-30 20:18:00,
2013-05-30 14:23:00,48.5,20.0,29.84,WSW,245,6.0,17.0,32,0.00,,---,0.00,VWS V14.01,2013-05-30 20:23:00,
2013-05-30 14:28:00,48.2,19.7,29.83,WSW,249,12.0,18.0,32,0.00,,---,0.00,VWS V14.01,2013-05-30 20:28:00,
2013-05-30 14:33:00,49.0,19.7,29.83,WSW,257,14.0,18.0,31,0.00,,---,0.00,VWS V14.01,2013-05-30 20:33:00,
2013-05-30 14:38:00,48.9,20.4,29.83,WNW,297,12.0,12.0,32,0.00,,---,0.00,VWS V14.01,2013-05-30 20:38:00,
2013-05-30 14:43:00,48.9,19.6,29.82,South,180,7.0,23.0,31,0.00,,---,0.00,VWS V14.01,2013-05-30 20:43:00,
2013-05-30 14:48:00,49.1,20.5,29.82,ENE,57,6.0,23.0,32,0.00,,---,0.00,VWS V14.01,2013-05-30 20:48:00,
2013-05-30 14:52:00,49.6,21.7,29.82,SSW,203,8.0,23.0,33,0.00,,---,0.00,VWS V14.01,2013-05-30 20:52:00,
2013-05-30 14:57:00,49.3,20.0,29.81,West,280,11.0,23.0,31,0.00,,---,0.00,VWS V14.01,2013-05-30 20:57:00,
2013-05-30 15:02:00,49.6,19.5,29.82,WSW,253,17.0,23.0,30,0.00,,---,0.00,VWS V14.01,2013-05-30 21:02:00,
2013-05-30 15:07:00,50.0,19.0,29.81,WSW,257,17.0,21.0,29,0.00,,---,0.00,VWS V14.01,2013-05-30 21:07:00,
2013-05-30 15:12:00,50.4,20.1,29.81,West,271,8.0,23.0,30,0.00,,---,0.00,VWS V14.01,2013-05-30 21:12:00,
2013-05-30 15:17:00,50.8,19.7,29.82,East,91,5.0,23.0,29,0.00,,---,0.00,VWS V14.01,2013-05-30 21:17:00,
2013-05-30 15:22:00,50.9,20.6,29.81,West,268,5.0,23.0,30,0.00,,---,0.00,VWS V14.01,2013-05-30 21:22:00,
2013-05-30 15:27:00,51.1,20.8,29.81,SSE,158,6.0,23.0,30,0.00,,---,0.00,VWS V14.01,2013-05-30 21:27:00,
2013-05-30 15:32:00,51.3,19.3,29.81,WSW,247,5.0,23.0,28,0.00,,---,0.00,VWS V14.01,2013-05-30 21:32:00,
2013-05-30 15:37:00,51.4,20.2,29.80,WSW,251,10.0,18.0,29,0.00,,---,0.00,VWS V14.01,2013-05-30 21:37:00,
2013-05-30 15:42:00,50.5,21.0,29.82,West,260,13.0,22.0,31,0.00,,---,0.00,VWS V14.01,2013-05-30 21:42:00,
2013-05-30 15:47:00,50.0,22.8,29.82,WSW,253,8.0,22.0,34,0.00,,---,0.00,VWS V14.01,2013-05-30 21:47:00,
2013-05-30 15:52:00,48.9,24.4,29.82,West,274,10.0,22.0,38,0.00,,---,0.00,VWS V14.01,2013-05-30 21:52:00,
2013-05-30 15:57:00,48.3,24.5,29.83,SSW,203,5.0,22.0,39,0.00,,---,0.00,VWS V14.01,2013-05-30 21:57:00,
2013-05-30 16:02:00,49.0,25.1,29.83,WSW,245,4.0,22.0,39,0.00,,---,0.00,VWS V14.01,2013-05-30 22:02:00,
2013-05-30 16:07:00,49.7,24.5,29.82,SSW,205,7.0,13.0,37,0.00,,---,0.00,VWS V14.01,2013-05-30 22:07:00,
2013-05-30 16:12:00,49.9,21.2,29.83,ESE,114,3.0,15.0,32,0.00,,---,0.00,VWS V14.01,2013-05-30 22:12:00,
2013-05-30 16:17:00,49.9,22.7,29.84,WNW,300,5.0,20.0,34,0.00,,---,0.00,VWS V14.01,2013-05-30 22:17:00,
2013-05-30 16:22:00,48.7,24.2,29.84,WNW,284,4.0,20.0,38,0.00,,---,0.00,VWS V14.01,2013-05-30 22:22:00,
2013-05-30 16:27:00,48.9,24.4,29.84,SE,138,3.0,20.0,38,0.00,,---,0.00,VWS V14.01,2013-05-30 22:27:00,
2013-05-30 16:32:00,50.5,23.2,29.83,WSW,253,6.0,20.0,34,0.00,,---,0.00,VWS V14.01,2013-05-30 22:32:00,
2013-05-30 16:37:00,51.4,21.8,29.84,WNW,303,5.0,11.0,31,0.00,,---,0.00,VWS V14.01,2013-05-30 22:37:00,
2013-05-30 16:42:00,51.7,22.1,29.84,NW,322,5.0,11.0,31,0.00,,---,0.00,VWS V14.01,2013-05-30 22:42:00,
2013-05-30 16:47:00,51.6,22.0,29.85,West,267,2.0,11.0,31,0.00,,---,0.00,VWS V14.01,2013-05-30 22:47:00,
2013-05-30 16:52:00,51.9,22.2,29.86,SW,224,4.0,11.0,31,0.00,,---,0.00,VWS V14.01,2013-05-30 22:52:00,
2013-05-30 16:57:00,51.9,20.7,29.86,WNW,300,8.0,16.0,29,0.00,,---,0.00,VWS V14.01,2013-05-30 22:57:00,
2013-05-30 17:02:00,51.8,20.6,29.85,SW,217,3.0,16.0,29,0.00,,---,0.00,VWS V14.01,2013-05-30 23:02:00,
2013-05-30 17:07:00,51.4,20.2,29.87,WSW,252,5.0,6.0,29,0.00,,---,0.00,VWS V14.01,2013-05-30 23:07:00,
2013-05-30 17:12:00,50.6,20.3,29.86,SW,222,5.0,17.0,30,0.00,,---,0.00,VWS V14.01,2013-05-30 23:12:00,
2013-05-30 17:17:00,50.1,20.7,29.86,WSW,253,3.0,17.0,31,0.00,,---,0.00,VWS V14.01,2013-05-30 23:17:00,
2013-05-30 17:22:00,50.5,21.8,29.86,WSW,250,6.0,17.0,32,0.00,,---,0.00,VWS V14.01,2013-05-30 23:22:00,
2013-05-30 17:27:00,51.3,21.7,29.86,South,173,1.0,17.0,31,0.00,,---,0.00,VWS V14.01,2013-05-30 23:27:00,
2013-05-30 17:32:00,52.1,20.8,29.87,West,270,3.0,17.0,29,0.00,,---,0.00,VWS V14.01,2013-05-30 23:32:00,
2013-05-30 17:37:00,52.1,20.8,29.87,South,179,3.0,10.0,29,0.00,,---,0.00,VWS V14.01,2013-05-30 23:37:00,
2013-05-30 17:42:00,52.3,21.0,29.87,WSW,246,7.0,10.0,29,0.00,,---,0.00,VWS V14.01,2013-05-30 23:42:00,
2013-05-30 17:47:00,52.2,21.7,29.87,SW,214,6.0,10.0,30,0.00,,---,0.00,VWS V14.01,2013-05-30 23:47:00,
2013-05-30 17:52:00,51.4,21.0,29.88,West,267,3.0,10.0,30,0.00,,---,0.00,VWS V14.01,2013-05-30 23:52:00,
2013-05-30 17:57:00,50.7,21.2,29.87,WSW,255,6.0,10.0,31,0.00,,---,0.00,VWS V14.01,2013-05-30 23:57:00,
2013-05-30 18:02:00,49.9,21.2,29.88,WSW,257,8.0,15.0,32,0.00,,---,0.00,VWS V14.01,2013-05-31 00:02:00,
2013-05-30 18:07:00,49.1,23.3,29.89,West,266,11.0,16.0,36,0.00,,---,0.00,VWS V14.01,2013-05-31 00:07:00,
2013-05-30 18:12:00,46.8,25.5,29.90,NNE,30,6.0,20.0,43,0.00,,---,0.00,VWS V14.01,2013-05-31 00:12:00,
2013-05-30 18:17:00,45.1,28.1,29.92,WSW,255,5.0,20.0,51,0.00,,---,0.00,VWS V14.01,2013-05-31 00:17:00,
2013-05-30 18:22:00,42.7,30.2,29.91,NNW,333,2.0,20.0,61,0.00,,---,0.00,VWS V14.01,2013-05-31 00:22:00,
2013-05-30 18:27:00,41.5,29.5,29.90,NNE,12,10.0,20.0,62,0.00,,---,0.00,VWS V14.01,2013-05-31 00:27:00,
2013-05-30 18:32:00,41.9,26.9,29.89,WNW,283,6.0,20.0,55,0.00,,---,0.00,VWS V14.01,2013-05-31 00:32:00,
2013-05-30 18:37:00,42.8,25.9,29.89,NE,41,6.0,9.0,51,0.00,,---,0.00,VWS V14.01,2013-05-31 00:37:00,
2013-05-30 18:42:00,43.2,25.4,29.89,West,281,3.0,14.0,49,0.00,,---,0.00,VWS V14.01,2013-05-31 00:42:00,
2013-05-30 18:47:00,43.6,24.7,29.89,SW,215,6.0,15.0,47,0.00,,---,0.00,VWS V14.01,2013-05-31 00:47:00,
2013-05-30 18:52:00,44.0,24.0,29.90,WSW,252,4.0,15.0,45,0.00,,---,0.00,VWS V14.01,2013-05-31 00:52:00,
2013-05-30 18:57:00,44.1,24.1,29.91,WNW,303,5.0,15.0,45,0.00,,---,0.00,VWS V14.01,2013-05-31 00:57:00,
2013-05-30 19:02:00,44.3,24.3,29.90,WNW,294,3.0,15.0,45,0.00,,---,0.00,VWS V14.01,2013-05-31 01:02:00,
2013-05-30 19:07:00,44.3,24.3,29.91,East,96,3.0,9.0,45,0.00,,---,0.00,VWS V14.01,2013-05-31 01:07:00,
2013-05-30 19:12:00,44.2,24.2,29.91,WSW,255,5.0,10.0,45,0.00,,---,0.00,VWS V14.01,2013-05-31 01:12:00,
2013-05-30 19:17:00,44.2,24.2,29.91,WSW,248,9.0,10.0,45,0.00,,---,0.00,VWS V14.01,2013-05-31 01:17:00,
2013-05-30 19:22:00,44.2,24.2,29.91,NNW,328,5.0,10.0,45,0.00,,---,0.00,VWS V14.01,2013-05-31 01:22:00,
2013-05-30 19:27:00,44.2,24.2,29.92,WSW,250,5.0,13.0,45,0.00,,---,0.00,VWS V14.01,2013-05-31 01:27:00,
2013-05-30 19:32:00,44.1,24.7,29.92,West,266,5.0,13.0,46,0.00,,---,0.00,VWS V14.01,2013-05-31 01:32:00,
2013-05-30 19:37:00,44.0,24.0,29.92,WSW,240,9.0,10.0,45,0.00,,---,0.00,VWS V14.01,2013-05-31 01:37:00,
2013-05-30 19:42:00,44.2,24.2,29.93,WSW,245,5.0,13.0,45,0.00,,---,0.00,VWS V14.01,2013-05-31 01:42:00,
2013-05-30 19:47:00,44.0,24.6,29.93,WSW,248,4.0,13.0,46,0.00,,---,0.00,VWS V14.01,2013-05-31 01:47:00,
2013-05-30 19:52:00,43.9,24.5,29.93,West,278,5.0,13.0,46,0.00,,---,0.00,VWS V14.01,2013-05-31 01:52:00,
2013-05-30 19:57:00,43.9,24.5,29.94,NNW,343,5.0,13.0,46,0.00,,---,0.00,VWS V14.01,2013-05-31 01:57:00,
2013-05-30 20:02:00,44.0,24.6,29.94,SW,214,3.0,13.0,46,0.00,,---,0.00,VWS V14.01,2013-05-31 02:02:00,
2013-05-30 20:07:00,43.8,24.9,29.95,WSW,258,4.0,10.0,47,0.00,,---,0.00,VWS V14.01,2013-05-31 02:07:00,
2013-05-30 20:12:00,43.7,24.3,29.95,SW,235,3.0,10.0,46,0.00,,---,0.00,VWS V14.01,2013-05-31 02:12:00,
2013-05-30 20:17:00,43.8,24.4,29.95,WSW,248,3.0,10.0,46,0.00,,---,0.00,VWS V14.01,2013-05-31 02:17:00,
2013-05-30 20:22:00,43.6,24.7,29.95,SSW,203,4.0,10.0,47,0.00,,---,0.00,VWS V14.01,2013-05-31 02:22:00,
2013-05-30 20:27:00,43.6,24.7,29.96,SW,215,4.0,10.0,47,0.00,,---,0.00,VWS V14.01,2013-05-31 02:27:00,
2013-05-30 20:32:00,43.5,24.6,29.96,WSW,238,4.0,10.0,47,0.00,,---,0.00,VWS V14.01,2013-05-31 02:32:00,
2013-05-30 20:37:00,43.5,25.1,29.95,SW,235,3.0,12.0,48,0.00,,---,0.00,VWS V14.01,2013-05-31 02:37:00,
2013-05-30 20:42:00,43.4,25.0,29.95,SW,224,4.0,12.0,48,0.00,,---,0.00,VWS V14.01,2013-05-31 02:42:00,
2013-05-30 20:47:00,43.1,24.8,29.96,NW,304,2.0,12.0,48,0.00,,---,0.00,VWS V14.01,2013-05-31 02:47:00,
2013-05-30 20:52:00,43.1,24.8,29.96,WSW,243,9.0,12.0,48,0.00,,---,0.00,VWS V14.01,2013-05-31 02:52:00,
2013-05-30 20:57:00,43.0,25.2,29.95,South,181,2.0,12.0,49,0.00,,---,0.00,VWS V14.01,2013-05-31 02:57:00,
2013-05-30 21:02:00,42.8,25.0,29.96,SW,219,2.0,12.0,49,0.00,,---,0.00,VWS V14.01,2013-05-31 03:02:00,
2013-05-30 21:07:00,42.8,25.0,29.96,SSE,149,1.0,11.0,49,0.00,,---,0.00,VWS V14.01,2013-05-31 03:07:00,
2013-05-30 21:12:00,42.8,25.0,29.97,WNW,302,3.0,13.0,49,0.00,,---,0.00,VWS V14.01,2013-05-31 03:12:00,
2013-05-30 21:17:00,42.7,24.9,29.97,North,358,3.0,13.0,49,0.00,,---,0.00,VWS V14.01,2013-05-31 03:17:00,
2013-05-30 21:22:00,42.6,24.8,29.97,East,82,3.0,13.0,49,0.00,,---,0.00,VWS V14.01,2013-05-31 03:22:00,
2013-05-30 21:27:00,42.4,25.1,29.97,South,191,3.0,13.0,50,0.00,,---,0.00,VWS V14.01,2013-05-31 03:27:00,
2013-05-30 21:32:00,42.3,25.5,29.98,NNE,27,2.0,13.0,51,0.00,,---,0.00,VWS V14.01,2013-05-31 03:32:00,
2013-05-30 21:37:00,42.2,25.4,29.98,WNW,284,3.0,9.0,51,0.00,,---,0.00,VWS V14.01,2013-05-31 03:37:00,
2013-05-30 21:42:00,42.2,24.9,29.98,NW,304,3.0,10.0,50,0.00,,---,0.00,VWS V14.01,2013-05-31 03:42:00,
2013-05-30 21:47:00,42.2,24.9,29.99,WNW,287,2.0,10.0,50,0.00,,---,0.00,VWS V14.01,2013-05-31 03:47:00,
2013-05-30 21:52:00,42.1,25.3,29.99,WNW,294,5.0,10.0,51,0.00,,---,0.00,VWS V14.01,2013-05-31 03:52:00,
2013-05-30 21:57:00,41.9,25.1,29.99,WNW,291,1.0,10.0,51,0.00,,---,0.00,VWS V14.01,2013-05-31 03:57:00,
2013-05-30 22:01:00,41.9,25.1,29.98,NW,319,2.0,10.0,51,0.00,,---,0.00,VWS V14.01,2013-05-31 04:01:00,
2013-05-30 22:06:00,41.8,24.5,29.99,SW,233,4.0,14.0,50,0.00,,---,0.00,VWS V14.01,2013-05-31 04:06:00,
2013-05-30 22:11:00,42.0,24.7,29.99,West,266,6.0,14.0,50,0.00,,---,0.00,VWS V14.01,2013-05-31 04:11:00,
2013-05-30 22:16:00,42.0,24.2,29.99,South,177,5.0,14.0,49,0.00,,---,0.00,VWS V14.01,2013-05-31 04:16:00,
2013-05-30 22:21:00,41.9,24.6,29.99,NW,316,4.0,14.0,50,0.00,,---,0.00,VWS V14.01,2013-05-31 04:21:00,
2013-05-30 22:26:00,41.9,24.6,29.99,SSE,166,5.0,14.0,50,0.00,,---,0.00,VWS V14.01,2013-05-31 04:26:00,
2013-05-30 22:31:00,41.8,24.1,29.98,WSW,252,2.0,14.0,49,0.00,,---,0.00,VWS V14.01,2013-05-31 04:31:00,
2013-05-30 22:36:00,41.8,23.6,29.99,South,184,2.0,12.0,48,0.00,,---,0.00,VWS V14.01,2013-05-31 04:36:00,
2013-05-30 22:41:00,41.7,24.0,29.98,South,176,3.0,12.0,49,0.00,,---,0.00,VWS V14.01,2013-05-31 04:41:00,
2013-05-30 22:46:00,41.7,24.0,29.97,WSW,245,8.0,12.0,49,0.00,,---,0.00,VWS V14.01,2013-05-31 04:46:00,
2013-05-30 22:51:00,41.6,23.4,29.97,NE,46,6.0,12.0,48,0.00,,---,0.00,VWS V14.01,2013-05-31 04:51:00,
2013-05-30 22:56:00,41.6,23.4,29.97,SW,218,5.0,13.0,48,0.00,,---,0.00,VWS V14.01,2013-05-31 04:56:00,
2013-05-30 23:01:00,41.6,23.9,29.97,West,260,4.0,13.0,49,0.00,,---,0.00,VWS V14.01,2013-05-31 05:01:00,
2013-05-30 23:06:00,41.6,23.9,29.97,SW,223,2.0,10.0,49,0.00,,---,0.00,VWS V14.01,2013-05-31 05:06:00,
2013-05-30 23:11:00,41.5,23.8,29.97,SW,217,3.0,11.0,49,0.00,,---,0.00,VWS V14.01,2013-05-31 05:11:00,
2013-05-30 23:16:00,41.5,23.8,29.96,SSW,212,8.0,15.0,49,0.00,,---,0.00,VWS V14.01,2013-05-31 05:16:00,
2013-05-30 23:21:00,41.5,23.8,29.96,WSW,240,2.0,15.0,49,0.00,,---,0.00,VWS V14.01,2013-05-31 05:21:00,
2013-05-30 23:26:00,41.4,23.2,29.96,SSW,207,9.0,16.0,48,0.00,,---,0.00,VWS V14.01,2013-05-31 05:26:00,
2013-05-30 23:31:00,41.3,22.6,29.97,WSW,250,1.0,16.0,47,0.00,,---,0.00,VWS V14.01,2013-05-31 05:31:00,
2013-05-30 23:36:00,41.3,22.6,29.97,WSW,250,8.0,10.0,47,0.00,,---,0.00,VWS V14.01,2013-05-31 05:36:00,
2013-05-30 23:41:00,41.4,22.2,29.96,SSW,194,7.0,14.0,46,0.00,,---,0.00,VWS V14.01,2013-05-31 05:41:00,
2013-05-30 23:46:00,41.3,22.1,29.96,SSW,205,5.0,14.0,46,0.00,,---,0.00,VWS V14.01,2013-05-31 05:46:00,
2013-05-30 23:51:00,41.3,21.6,29.95,WNW,295,4.0,14.0,45,0.00,,---,0.00,VWS V14.01,2013-05-31 05:51:00,
2013-05-30 23:56:00,41.3,21.0,29.96,WNW,294,4.0,19.0,44,0.00,,---,0.00,VWS V14.01,2013-05-31 05:56:00,